Content
SEND FEEDBACK

Daily
Averages
Monthly
Summary
United States of America

GREENSBURG, INDIANA


Home > North America > United States > Indiana
Elevation: 949 feet     Latitude: 39 20N     Longitude: 085 28W

WEATHER
 
SELECT A DAY
Number of Records: 173,045;   Date Range: 10/15/98 - 8/30/14
 
SHARE

PRINT THIS DATA

[ ← Previous Day ]
WEATHER ALMANAC - JUNE 17, 2014
[ Next Day → ]
[ °C ]   °F
Weather ElementAverageHighLow
Temperature82.2 °F91 °F (3:53 pm)72 °F (5:53 am)
Dewpoint68.9 °F71.1 °F (11:53 am)66.9 °F (2:53 am)
Humidity65.3 %84 % (5:53 am)50 % (3:53 pm)
Barometer30.01 in30.07 in (9:53 am)29.95 in (3:53 pm)
Wind Speed13.4 mph24.2 mph (2:53 pm)
Wind Gust31.1 mph (4:53 pm)
Weather ElementAverage
Visibility9.8 mi
Wind DirectionSSW (203.5 °)

Weather ElementTotal
Precipitation---
Cooling Degree Days16.5 (Base 65)
Growing Degree Days31.5 (Base 50)
Averaged from 23 records on June 17, 2014
WEATHER CONDITIONS BREAKOUT
WIND DIRECTION BREAKOUT
WEATHER BY HOUR - JUNE 17, 2014
[ °C ]   °F
Local TimeTemperatureDewpointHumidityBarometerVisibilityWind DirectionWind SpeedGust SpeedPrecipitationEventsConditions
1:53 AM77.0 °F68.0 °F74 %30.01 in10.0 miSouth (180°)8.1 mphClear
2:53 AM75.9 °F66.9 °F74 %29.99 in10.0 miSouth (190°)11.5 mphClear
3:53 AM73.9 °F66.9 °F79 %30.00 in10.0 miSouth (190°)8.1 mphClear
4:53 AM73.9 °F66.9 °F79 %30.01 in10.0 miSouth (180°)8.1 mphClear
5:53 AM72.0 °F66.9 °F84 %30.04 in9.0 miSouth (180°)6.9 mphClear
6:53 AM73.9 °F66.9 °F79 %30.05 in8.0 miSouth (170°)9.2 mphClear
7:53 AM73.9 °F66.9 °F79 %30.06 in9.0 miSouth (190°)9.2 mphClear
8:53 AM77.0 °F68.0 °F74 %30.06 in9.0 miSouth (180°)13.8 mphClear
9:53 AM80.1 °F69.1 °F69 %30.07 in10.0 miSW (220°)13.8 mphClear
10:53 AM84.0 °F70.0 °F63 %30.06 in10.0 miWSW (240°)19.6 mph25.3 mphClear
11:53 AM86.0 °F71.1 °F61 %30.03 in10.0 miSW (220°)19.6 mph25.3 mphClear
12:53 PM87.1 °F71.1 °F59 %30.01 in10.0 miSW (220°)15.0 mphScattered Clouds
1:53 PM89.1 °F70.0 °F53 %30.00 in10.0 miSW (230°)17.3 mphMostly Cloudy
2:53 PM89.1 °F69.1 °F52 %29.97 in10.0 miSW (220°)24.2 mph29.9 mphClear
3:53 PM91.0 °F70.0 °F50 %29.95 in10.0 miSSW (210°)19.6 mph27.6 mphClear
4:53 PM91.0 °F70.0 °F50 %29.95 in10.0 miSSW (210°)23.0 mph31.1 mphClear
5:53 PM90.0 °F69.1 °F50 %29.97 in10.0 miSW (230°)20.7 mphClear
6:53 PM90.0 °F69.1 °F50 %29.96 in10.0 miSW (230°)16.1 mphClear
7:53 PM88.0 °F69.1 °F53 %29.97 in10.0 miSW (220°)15.0 mphClear
8:53 PM84.9 °F70.0 °F61 %29.98 in10.0 miSSW (210°)8.1 mphClear
9:53 PM82.0 °F70.0 °F67 %29.99 in10.0 miSSW (200°)5.8 mphClear
10:53 PM80.1 °F70.0 °F71 %30.00 in10.0 miSouth (170°)8.1 mphClear
11:53 PM80.1 °F70.0 °F71 %30.01 in10.0 miSouth (190°)8.1 mphClear
Hourly data recorded from KGEZ, located miles away from Greensburg, Indiana







STORIES FROM OUR PARTNERS